Content
SEND FEEDBACK

Daily
Averages
Monthly
Summary
United States of America

WRIGHTSBORO, NORTH CAROLINA


Home > North America > United States > North Carolina
Elevation: 30 feet     Latitude: 34 18N     Longitude: 077 54W

WEATHER
 
SELECT A DAY
Number of Records: 208,780;   Date Range: 1/1/95 - 7/26/14
 
SHARE

PRINT THIS DATA

[ ← Previous Day ]
WEATHER ALMANAC - MARCH 26, 2013
[ Next Day → ]
[ °C ]   °F
Weather ElementAverageHighLow
Temperature43.6 °F51.1 °F (3:53 pm)34 °F (6:53 am)
Dewpoint26.9 °F30.9 °F (9:53 pm)24.1 °F (10:53 am)
Humidity52.9 %70 % (6:53 am)38 % (1:53 pm)
Barometer29.97 in30.11 in (11:53 pm)29.88 in (1:53 am)
Wind Speed10.6 mph17.3 mph (12:53 pm)
Wind Gust24.2 mph (1:53 pm)
Weather ElementAverage
Visibility10 mi
Wind DirectionWNW (280 °)

Weather ElementTotal
Precipitation---
Heating Degree Days22.5 (Base 65)
Averaged from 23 records on March 26, 2013
WEATHER CONDITIONS BREAKOUT
WIND DIRECTION BREAKOUT
WEATHER BY HOUR - MARCH 26, 2013
[ °C ]   °F
Local TimeTemperatureDewpointHumidityBarometerVisibilityWind DirectionWind SpeedGust SpeedPrecipitationEventsConditions
1:53 AM41.0 °F26.1 °F55 %29.88 in10.0 miWest (260°)11.5 mphClear
2:53 AM39.0 °F26.1 °F60 %29.89 in10.0 miWest (260°)10.4 mphClear
3:53 AM37.0 °F26.1 °F65 %29.90 in10.0 miWest (260°)9.2 mphClear
4:53 AM36.0 °F26.1 °F67 %29.90 in10.0 miWest (270°)8.1 mphClear
5:53 AM36.0 °F25.0 °F64 %29.91 in10.0 miWest (270°)8.1 mphClear
6:53 AM34.0 °F25.0 °F70 %29.92 in10.0 miWest (260°)8.1 mphClear
7:53 AM35.1 °F26.1 °F70 %29.94 in10.0 miWest (260°)9.2 mphClear
8:53 AM39.9 °F26.1 °F58 %29.95 in10.0 miWNW (290°)12.7 mphClear
9:53 AM44.1 °F26.1 °F49 %29.96 in10.0 miWNW (290°)10.4 mphClear
10:53 AM46.9 °F24.1 °F41 %29.95 in10.0 miWNW (300°)10.4 mph18.4 mphClear
11:53 AM48.9 °F25.0 °F39 %29.95 in10.0 miWest (280°)12.7 mph18.4 mphPartly Cloudy
12:53 PM50.0 °F26.1 °F39 %29.95 in10.0 miWNW (290°)17.3 mph21.9 mphMostly Cloudy
1:53 PM48.9 °F24.1 °F38 %29.94 in10.0 miWNW (290°)15.0 mph24.2 mphScattered Clouds
2:53 PM48.0 °F25.0 °F41 %29.95 in10.0 miNW (310°)15.0 mphOvercast
3:53 PM51.1 °F27.0 °F39 %29.95 in10.0 miWNW (290°)15.0 mphOvercast
4:53 PM50.0 °F26.1 °F39 %29.96 in10.0 miNW (320°)13.8 mph19.6 mphOvercast
5:53 PM48.9 °F28.0 °F44 %29.98 in10.0 miWNW (300°)15.0 mph20.7 mphOvercast
6:53 PM48.0 °F28.9 °F48 %30.00 in10.0 miWNW (290°)8.1 mphPartly Cloudy
7:53 PM46.9 °F28.9 °F50 %30.03 in10.0 miWest (280°)8.1 mphMostly Cloudy
8:53 PM44.1 °F30.0 °F58 %30.06 in10.0 miWest (260°)6.9 mphClear
9:53 PM45.0 °F30.9 °F58 %30.08 in10.0 miWest (270°)5.8 mphMostly Cloudy
10:53 PM43.0 °F30.9 °F62 %30.10 in10.0 miWest (270°)5.8 mphClear
11:53 PM42.1 °F30.0 °F62 %30.11 in10.0 miWest (270°)8.1 mphClear
Hourly data recorded from KILM, located miles away from Wrightsboro, North Carolina







STORIES FROM OUR PARTNERS